Simultaneous Nadir Overpasses (SNOs) Predictions

Prediction of SNOs between GOES-15 and METOP-C Satellite Orbit:

Table of predicted SNOs for the next 14.0 days since TLE Epoch: 5/29/2024
Index Date Time (GOES-15) GOES-15 Lat,Lon METOP-C Lat,Lon Distance(km) Time Diff (sec)
1 05/30/2024 05:28:35 -0.20, 61.59 0.02, 60.68 104.25 80
2 05/31/2024 05:05:17 -0.21, 61.57 -1.10, 65.67 466.28 80
3 06/01/2024 17:26:59 0.19, 61.56 0.10, 61.07 55.64 80
4 06/04/2024 05:25:12 -0.19, 61.51 -0.18, 61.51 1.39 80
5 06/06/2024 17:20:55 0.19, 61.49 0.26, 61.91 46.56 80
6 06/08/2024 05:42:27 -0.17, 61.46 0.73, 57.34 469.10 80
7 06/09/2024 05:19:08 -0.19, 61.45 -0.41, 62.33 100.45 80
8 06/10/2024 17:40:50 0.17, 61.46 -0.64, 57.74 423.34 80
9 06/11/2024 17:17:31 0.20, 61.45 0.51, 62.73 146.47 80
